Temperature
15 15 15 14 14 15 15 14 14 13 13 12 12 12 12 12 12 12 12 12 12 12 12 12 12 13 13 13 13 13 14 14 14 14 14 15 15 15 15 15 15 15 15 15
16 15 15 15 15 15 14 14 14 14 14 13 13 13 13 13 13 13 13 12 12 12 12 12 12 12 12 13 13 13 13 13 13 13 14 14 14 14 14 15 15 15 15 15
17 16 15 16 15 14 14 14 14 14 14 14 14 13 13 13 13 13 13 13 13 12 12 12 12 12 12 12 12 12 13 13 13 13 13 13 13 13 14 14 14 14 14 15
17 16 15 16 15 14 14 14 14 14 14 13 13 13 13 13 13 13 13 13 13 13 13 13 12 12 12 12 12 12 12 12 12 12 12 12 13 13 13 13 14 14 14 14
17 17 17 15 15 15 15 15 15 14 14 14 13 14 15 13 12 12 12 13 13 13 13 13 13 13 13 13 12 12 12 12 12 12 12 12 12 12 13 13 13 13 13 14
17 17 17 17 16 14 14 15 15 14 14 13 14 17 16 13 12 12 13 13 13 13 13 13 13 13 13 13 12 12 11 11 11 12 12 12 12 12 12 12 12 12 13 13
17 17 17 16 14 13 15 16 14 13 13 13 14 14 13 12 12 12 13 13 14 14 14 13 13 13 13 13 12 12 12 11 12 12 12 12 12 12 12 12 12 12 12 12
17 17 17 15 14 15 16 14 13 13 13 12 12 12 12 12 12 13 13 13 14 14 14 14 14 13 13 13 12 12 12 12 11 12 12 12 12 12 12 11 11 11 11 12
17 18 15 14 15 14 13 14 13 13 12 12 12 12 12 12 13 13 13 13 14 14 14 14 14 14 13 13 13 12 12 11 11 11 11 11 11 11 11 11 11 11 11 11
16 16 14 13 13 13 13 13 12 12 12 12 12 12 12 13 13 13 13 13 14 14 14 14 14 14 14 13 13 12 12 11 11 11 11 11 11 11 11 11 11 11 11 11
16 16 14 13 13 13 12 12 12 12 12 12 12 12 12 12 12 12 13 13 13 14 14 14 14 14 14 14 13 12 12 12 11 11 11 11 11 11 11 10 10 10 10 10
17 16 16 15 13 13 12 12 12 12 12 12 11 11 12 12 12 12 12 13 13 14 14 14 14 14 14 14 13 13 12 12 11 11 11 10 10 10 10 10 10 10 10 10
16 14 14 14 13 13 12 12 12 12 12 11 11 11 11 12 12 12 12 13 13 14 14 14 14 14 14 14 14 13 12 12 11 11 11 10 10 10 9 9 10 10 10 10
13 13 13 13 13 12 12 12 12 12 11 11 11 11 11 11 12 12 12 13 13 14 14 14 14 14 14 14 14 13 12 12 11 11 11 10 10 10 9 9 9 9 9 9
13 13 14 13 13 12 12 12 12 12 11 11 11 11 11 11 12 12 12 13 13 13 14 14 14 14 14 14 14 13 12 12 11 11 11 10 10 10 9 9 9 9 9 9
13 12 13 13 13 12 12 12 12 12 11 11 11 11 11 11 11 12 12 13 13 13 14 14 14 14 14 14 14 13 12 12 11 11 11 10 10 10 10 9 9 9 9 9
13 13 13 13 13 12 12 12 12 11 11 11 11 11 11 11 11 11 12 12 13 13 14 14 14 14 14 14 14 13 12 12 12 11 11 10 10 10 10 9 9 9 9 9
14 14 14 14 13 13 12 12 11 11 11 11 11 11 11 11 11 11 12 12 12 13 13 14 14 14 14 14 14 13 12 12 11 11 11 10 10 10 10 9 9 9 9 9
13 13 13 13 13 13 12 12 11 11 11 11 11 11 11 11 11 11 11 12 12 13 13 14 14 14 14 14 14 13 13 12 12 11 11 11 10 10 10 10 9 9 9 9
13 13 13 13 13 12 12 12 11 11 11 11 11 11 11 11 11 11 11 11 12 12 13 14 14 14 14 14 14 13 13 12 12 11 11 11 10 10 10 10 9 9 9 9
13 13 13 13 13 12 12 12 11 11 11 11 11 11 11 11 11 11 11 11 12 12 13 13 14 14 14 14 14 13 13 12 12 11 11 11 10 10 10 10 9 9 9 9
13 13 13 13 13 12 12 12 11 11 11 11 11 11 11 11 11 11 11 11 12 12 13 13 13 14 14 14 14 14 13 12 12 11 11 11 11 10 10 10 10 10 9 9
13 13 13 13 13 13 12 12 12 11 11 11 11 11 11 11 11 11 11 11 12 12 13 13 13 14 14 14 14 14 13 13 12 12 11 11 11 10 10 10 10 10 10 10
13 13 13 13 13 12 12 12 12 12 11 11 11 11 11 11 11 11 11 11 12 12 13 13 13 14 14 14 14 14 13 13 12 12 11 11 11 11 10 10 10 10 10 10
13 13 13 13 13 12 12 12 12 12 11 11 11 11 11 11 11 11 11 11 12 12 12 13 13 13 14 14 14 14 13 13 13 12 12 11 11 11 10 10 10 10 10 10
12 12 13 13 13 13 12 12 12 12 12 11 11 11 11 11 11 11 11 11 12 12 12 12 13 13 13 13 13 14 13 13 13 13 12 12 11 11 11 11 10 10 10 10
11 12 12 12 12 12 12 12 12 12 12 12 11 11 11 11 11 11 11 11 11 12 12 12 12 13 13 13 13 13 13 13 13 13 13 12 12 11 11 11 11 10 10 10
Wind_Speed
6 3 3 5 6 7 7 5 3 4 5 9 12 12 12 12 12 13 14 15 14 13 12 12 11 11 11 11 10 9 7 7 6 5 4 3 2 1 0 1 1 2 3 4
4 2 0 3 5 4 4 4 4 3 4 7 9 8 10 12 13 13 13 13 12 12 12 11 11 10 10 10 10 10 9 9 8 7 6 5 4 3 2 1 0 1 3 3
1 1 3 1 1 2 2 3 3 4 5 8 8 9 10 12 12 12 12 12 11 11 10 10 10 10 10 10 10 10 10 10 9 8 8 6 5 4 3 2 1 0 1 2
1 3 2 3 2 1 2 2 2 3 5 7 8 8 5 9 11 12 12 11 11 10 9 9 9 9 9 9 10 10 10 10 9 9 8 7 7 6 5 3 2 1 1 0
2 2 2 3 4 3 3 2 1 4 6 7 9 4 3 11 12 12 11 10 9 8 8 8 8 8 8 9 10 10 10 10 9 9 8 8 8 7 6 5 4 3 3 2
3 3 2 3 6 2 3 3 2 2 5 7 8 2 6 13 13 12 11 9 8 8 7 7 8 8 8 9 10 10 9 9 9 8 8 8 8 7 6 5 4 4 4 4
5 4 2 5 6 5 4 2 3 1 3 5 6 6 9 12 11 11 10 9 9 7 6 6 6 7 8 9 9 8 8 9 9 9 9 8 8 7 7 6 5 5 5 5
3 4 2 9 8 5 0 3 1 1 2 4 6 7 8 10 11 11 11 10 9 8 7 6 6 6 7 7 6 5 6 7 8 8 8 7 8 7 7 7 6 6 6 6
4 1 4 8 5 3 2 2 1 1 2 4 6 7 8 9 10 10 11 10 9 8 7 5 5 5 6 5 4 4 5 6 6 7 7 7 8 8 7 7 6 6 6 5
5 6 7 8 7 5 4 2 1 2 3 4 5 7 8 9 9 10 10 10 9 9 8 7 6 5 5 4 3 3 4 5 5 6 6 7 6 7 7 7 7 6 6 6
6 4 6 10 11 9 6 4 3 2 3 4 5 6 8 8 9 10 10 9 9 9 9 8 7 5 4 3 3 3 3 4 4 5 5 5 6 6 7 7 7 6 5 5
4 6 6 6 11 11 8 6 4 3 2 2 4 6 7 8 8 9 9 9 10 10 10 9 7 5 3 2 2 3 3 3 3 3 3 4 4 5 6 6 8 10 10 8
1 5 4 4 8 11 9 6 4 3 2 3 4 4 6 7 8 9 9 10 11 11 10 9 7 5 4 2 1 2 2 2 2 3 3 3 3 4 4 4 5 9 12 12
4 7 6 7 8 10 8 6 4 3 2 2 3 4 5 6 7 9 9 10 10 10 8 8 6 5 4 2 1 1 1 2 1 2 2 3 3 4 4 4 5 6 9 11
10 8 6 7 9 9 8 7 5 3 2 2 2 4 5 6 8 9 9 9 9 8 8 7 6 6 5 2 1 0 0 1 2 2 2 3 3 4 4 5 5 5 6 7
12 9 7 9 11 10 9 8 6 4 3 2 3 4 5 6 7 8 8 9 9 9 8 7 7 7 5 2 1 1 1 2 1 2 2 2 3 3 4 4 5 5 6 6
15 14 13 12 12 11 10 8 6 4 4 3 3 4 5 6 7 7 8 9 8 7 6 7 7 7 4 2 1 1 2 3 4 2 2 2 3 3 4 4 4 5 6 7
15 14 14 13 12 11 10 8 7 5 4 3 3 5 5 6 7 8 9 9 8 6 5 7 7 7 3 1 2 2 2 3 3 2 3 3 3 3 3 4 4 5 5 5
13 12 12 11 11 10 9 8 7 6 5 4 4 5 5 6 7 8 9 9 8 7 8 9 9 6 2 1 1 3 3 3 3 3 3 4 3 3 3 3 4 4 4 4
13 12 11 11 10 10 9 8 7 6 5 5 5 5 5 5 6 7 8 7 6 6 9 10 9 5 2 1 2 3 3 4 4 4 3 4 3 3 3 3 3 3 3 3
13 13 12 12 11 10 9 8 7 7 6 5 6 6 6 6 6 7 7 7 6 8 9 9 6 4 2 1 4 4 4 4 4 4 4 4 4 4 4 4 4 3 3 3
12 13 13 12 12 11 10 9 8 7 6 6 6 6 6 7 7 7 7 5 7 9 9 7 5 5 5 5 4 4 5 5 5 4 4 4 5 5 5 4 4 4 3 3
10 12 13 13 13 12 11 10 9 8 8 7 7 7 6 6 6 6 6 6 7 10 9 7 7 8 8 5 5 5 6 6 6 5 5 5 5 5 5 5 5 5 4 4
8 10 12 12 12 12 12 11 10 8 8 7 7 7 7 6 6 5 5 6 7 9 8 7 9 9 8 5 5 5 6 6 6 6 5 5 5 5 5 5 5 5 5 6
5 8 10 11 12 11 11 11 10 9 9 7 8 8 7 6 6 6 7 8 8 8 8 7 7 7 6 4 5 5 6 6 6 6 6 6 6 6 6 5 5 5 5 6
3 5 6 9 10 9 9 9 8 8 8 8 7 7 6 6 6 6 6 7 8 8 7 6 6 5 4 4 4 5 6 6 6 7 7 6 7 7 6 6 7 6 5 5
3 4 5 6 8 8 8 9 9 9 9 9 8 7 6 6 6 6 7 6 6 6 6 6 5 5 4 4 5 5 6 6 6 7 7 7 6 6 7 7 6 6 5 6
Wind_Direction
104 101 51 37 30 34 46 38 31 3 0 355 347 347 354 5 13 21 26 27 27 27 27 29 29 24 21 24 24 26 32 31 29 27 20 16 19 14 348 177 196 189 191 192
149 168 19 30 27 32 40 31 28 28 39 355 339 350 6 13 14 18 21 22 23 26 27 27 26 24 25 27 28 32 36 33 27 28 32 22 18 26 36 37 249 217 211 199
169 188 244 258 17 14 33 24 356 8 358 340 346 356 2 5 8 11 12 14 18 21 24 26 26 24 27 29 32 36 38 35 31 34 33 26 24 34 36 38 41 212 225 225
236 222 256 96 129 253 291 293 315 321 328 331 327 322 349 11 4 2 2 2 7 11 16 19 24 26 30 35 36 37 35 33 30 29 30 29 30 29 26 26 29 19 16 316
248 262 234 181 198 216 253 261 259 312 331 337 326 277 65 21 4 355 352 350 350 353 2 13 18 17 22 34 38 37 33 30 28 28 29 29 30 25 22 29 31 27 31 23
238 260 257 142 144 164 236 235 164 299 334 345 339 341 22 357 350 350 349 346 344 344 358 12 13 11 20 31 34 33 28 28 28 28 30 28 25 21 21 26 30 35 39 28
239 254 245 141 148 172 222 84 119 303 339 348 356 348 333 336 344 347 347 346 344 345 354 360 359 3 18 26 29 26 25 29 31 30 34 31 28 25 24 30 36 43 47 43
223 240 219 150 167 201 93 94 140 305 342 340 333 330 336 341 345 348 350 351 349 345 347 349 352 355 10 20 19 24 29 34 35 33 32 31 33 31 30 30 37 41 41 42
234 297 95 170 184 166 150 170 173 294 329 325 325 335 340 342 346 349 351 351 347 340 337 344 351 348 357 11 7 15 30 37 38 38 40 34 32 32 32 31 32 31 31 31
247 237 208 200 199 192 195 200 209 281 302 309 321 331 337 342 346 348 350 349 345 340 340 345 347 342 345 352 350 359 22 31 39 39 43 43 37 34 34 29 28 29 29 26
238 225 201 210 208 201 196 203 219 252 281 305 319 329 337 339 345 345 344 345 344 341 337 336 336 336 342 338 331 348 12 25 37 44 44 45 51 41 36 42 27 16 20 23
229 196 197 196 195 193 194 201 214 242 276 308 318 327 333 337 341 341 341 342 342 342 340 337 334 333 343 336 313 332 6 19 27 41 51 48 56 79 68 48 38 34 27 22
153 158 160 139 168 182 191 194 203 232 284 313 326 331 330 333 336 338 341 345 343 340 336 336 337 337 348 340 310 332 7 23 32 37 51 56 51 53 77 101 89 60 46 42
170 157 165 169 171 178 184 187 199 225 260 294 315 325 328 330 334 340 344 343 339 336 338 341 343 349 352 341 307 326 29 64 52 64 54 58 61 60 56 61 75 75 68 56
192 193 182 170 170 176 181 188 203 223 251 278 303 317 328 331 334 338 339 339 337 341 348 348 349 354 351 334 293 242 98 87 88 80 80 74 75 75 71 71 71 74 83 82
186 189 183 178 179 183 189 199 213 224 239 271 293 315 325 325 325 327 335 340 339 342 344 344 347 348 341 318 237 159 119 75 68 115 112 103 91 83 80 82 80 74 68 61
180 187 189 190 189 192 198 206 216 223 234 255 286 310 314 317 323 333 338 339 334 330 334 342 342 339 332 301 229 183 154 144 168 156 113 107 100 92 91 92 89 82 71 49
198 197 195 194 192 195 200 206 213 221 234 253 278 290 301 314 324 330 332 331 330 333 349 349 344 330 321 288 224 195 174 163 161 139 133 131 123 116 109 107 103 98 99 93
201 199 198 198 196 197 199 203 209 219 230 242 259 280 296 303 313 319 325 328 331 335 344 344 332 316 317 288 210 200 187 174 167 156 149 143 159 140 132 127 123 116 113 107
197 196 195 193 192 196 199 202 207 218 228 240 257 273 285 299 312 318 320 321 328 332 327 329 323 320 307 222 210 204 195 189 180 174 173 177 172 163 156 149 147 140 132 124
195 194 192 191 191 195 201 203 208 218 225 234 254 274 289 302 309 312 315 318 334 341 328 313 313 318 298 280 220 210 203 197 192 191 189 190 185 181 177 171 170 168 158 147
197 195 195 195 194 197 201 206 212 220 228 237 249 265 278 291 304 308 307 306 321 332 324 315 319 333 319 284 227 208 205 203 200 198 198 200 198 195 193 189 187 185 181 167
200 200 199 200 201 202 201 206 212 219 228 238 249 260 271 287 295 299 308 322 325 329 319 312 330 322 303 260 225 209 206 206 205 203 204 206 206 206 203 200 200 198 193 181
206 205 205 204 204 204 206 209 212 219 228 238 247 255 264 274 280 281 294 301 304 313 311 317 316 308 284 245 224 215 212 209 207 208 207 210 210 210 209 207 207 204 197 188
215 210 207 203 204 209 215 214 211 217 227 236 244 246 250 256 268 288 299 305 312 310 312 314 309 299 274 251 230 220 214 211 209 206 206 208 209 213 213 210 210 207 201 195
244 224 217 214 215 215 214 213 215 218 222 231 239 240 240 243 253 265 279 293 302 304 307 313 316 296 284 268 248 234 223 207 202 211 214 211 210 209 212 211 209 209 206 198
287 248 233 229 225 221 220 218 223 225 225 229 237 238 236 240 247 259 273 286 297 302 308 310 310 305 293 274 254 239 229 221 214 211 210 210 210 209 210 209 207 204 200 197
Height
1564 1565 1564 1564 1562 1559 1557 1559 1560 1561 1560 1559 1556 1553 1549 1545 1541 1536 1533 1529 1527 1524 1522 1520 1517 1515 1513 1511 1509 1508 1507 1506 1505 1505 1504 1504 1505 1505 1506 1506 1507 1508 1509 1510
1563 1564 1564 1563 1563 1561 1561 1560 1559 1558 1559 1559 1557 1554 1550 1547 1544 1540 1537 1534 1532 1529 1526 1524 1521 1519 1517 1514 1512 1511 1509 1507 1506 1505 1505 1504 1504 1504 1504 1504 1505 1506 1507 1508
1557 1561 1562 1561 1563 1562 1561 1562 1561 1559 1560 1559 1556 1554 1552 1549 1546 1543 1541 1538 1536 1533 1530 1528 1525 1523 1520 1518 1516 1513 1511 1509 1507 1506 1504 1504 1503 1503 1503 1503 1503 1504 1505 1505
1556 1560 1565 1562 1562 1563 1562 1561 1560 1560 1559 1559 1557 1555 1553 1551 1548 1545 1543 1540 1538 1535 1533 1531 1529 1526 1524 1521 1519 1516 1514 1511 1509 1507 1505 1504 1503 1502 1502 1501 1501 1502 1502 1503
1555 1555 1556 1560 1560 1561 1560 1558 1559 1560 1559 1558 1555 1552 1551 1551 1549 1547 1544 1542 1539 1537 1535 1533 1531 1529 1527 1525 1522 1519 1516 1513 1511 1508 1506 1505 1503 1502 1501 1501 1500 1500 1500 1501
1556 1555 1555 1554 1558 1561 1563 1557 1558 1560 1559 1558 1554 1548 1551 1552 1549 1547 1544 1542 1540 1538 1537 1535 1532 1530 1528 1526 1524 1520 1517 1515 1512 1510 1507 1505 1504 1502 1501 1500 1500 1499 1499 1499
1554 1552 1548 1554 1559 1562 1560 1556 1559 1559 1559 1558 1556 1556 1556 1552 1550 1547 1544 1542 1540 1539 1537 1535 1533 1531 1530 1527 1525 1522 1519 1517 1514 1511 1509 1507 1504 1503 1502 1501 1500 1499 1498 1498
1552 1551 1551 1554 1557 1556 1555 1557 1558 1559 1559 1558 1557 1556 1554 1552 1549 1547 1544 1542 1540 1539 1537 1535 1534 1532 1531 1528 1526 1523 1521 1518 1516 1513 1511 1509 1506 1504 1503 1502 1501 1500 1499 1498
1548 1548 1550 1552 1553 1555 1556 1557 1558 1558 1558 1558 1557 1556 1554 1552 1550 1547 1545 1542 1540 1539 1537 1536 1534 1532 1531 1529 1526 1525 1523 1520 1518 1515 1513 1511 1509 1507 1505 1503 1502 1500 1499 1499
1548 1546 1550 1552 1553 1554 1556 1557 1557 1557 1557 1557 1556 1555 1554 1552 1550 1547 1545 1542 1540 1538 1537 1536 1534 1532 1530 1529 1527 1525 1524 1522 1520 1518 1515 1513 1511 1509 1507 1505 1503 1502 1501 1500
1543 1544 1548 1549 1551 1553 1555 1556 1556 1556 1556 1556 1555 1555 1553 1552 1550 1547 1544 1542 1540 1538 1536 1535 1533 1532 1530 1529 1527 1526 1525 1523 1522 1519 1517 1515 1513 1511 1509 1507 1505 1504 1503 1502
1538 1540 1542 1544 1547 1550 1553 1554 1555 1556 1556 1555 1555 1554 1553 1551 1549 1547 1544 1542 1540 1538 1536 1534 1533 1531 1530 1528 1527 1526 1525 1524 1522 1520 1518 1517 1515 1513 1511 1510 1508 1507 1505 1504
1539 1540 1542 1544 1546 1549 1551 1553 1554 1555 1555 1555 1554 1553 1552 1550 1548 1546 1544 1542 1539 1537 1535 1533 1532 1531 1530 1528 1527 1526 1525 1524 1522 1521 1520 1518 1517 1515 1514 1513 1511 1510 1508 1507
1538 1540 1542 1544 1546 1548 1550 1552 1553 1554 1553 1553 1552 1552 1550 1549 1547 1546 1543 1541 1538 1536 1534 1533 1531 1530 1529 1528 1527 1526 1525 1523 1523 1522 1521 1520 1518 1517 1516 1515 1514 1513 1511 1510
1536 1539 1541 1543 1545 1547 1549 1551 1552 1552 1552 1552 1551 1550 1549 1548 1546 1544 1542 1540 1538 1536 1534 1533 1531 1530 1528 1527 1526 1525 1525 1524 1523 1522 1521 1520 1519 1518 1517 1517 1516 1516 1515 1513
1534 1537 1539 1542 1544 1546 1547 1549 1550 1551 1551 1550 1550 1549 1548 1546 1545 1543 1541 1539 1537 1535 1533 1532 1530 1529 1528 1527 1526 1525 1524 1523 1523 1523 1522 1521 1521 1520 1519 1519 1518 1518 1517 1516
1531 1534 1537 1539 1542 1544 1546 1547 1548 1549 1549 1549 1548 1548 1546 1545 1544 1542 1540 1538 1536 1534 1532 1531 1529 1528 1527 1526 1526 1525 1525 1524 1523 1523 1523 1522 1522 1522 1521 1520 1520 1520 1519 1518
1528 1531 1534 1537 1539 1542 1544 1545 1546 1547 1547 1547 1546 1546 1545 1544 1542 1540 1538 1536 1534 1533 1531 1529 1528 1527 1526 1526 1525 1525 1525 1524 1524 1524 1524 1523 1523 1522 1522 1522 1522 1522 1521 1520
1526 1529 1532 1535 1538 1540 1542 1543 1544 1545 1545 1545 1544 1544 1543 1542 1540 1538 1536 1534 1533 1531 1530 1528 1527 1526 1525 1525 1524 1524 1524 1524 1524 1524 1524 1523 1523 1523 1523 1523 1523 1523 1523 1522
1523 1527 1530 1532 1535 1537 1539 1541 1542 1542 1543 1543 1542 1542 1541 1540 1539 1537 1535 1533 1531 1529 1528 1526 1525 1524 1524 1524 1523 1523 1524 1524 1524 1524 1524 1524 1524 1524 1524 1524 1524 1524 1524 1523
1520 1524 1527 1530 1532 1535 1537 1538 1539 1540 1540 1540 1540 1540 1539 1538 1536 1535 1533 1531 1530 1527 1526 1524 1523 1523 1522 1522 1522 1522 1523 1523 1523 1524 1524 1524 1524 1524 1524 1525 1524 1524 1524 1524
1518 1521 1524 1527 1530 1532 1534 1535 1537 1538 1538 1538 1538 1537 1537 1536 1534 1533 1531 1529 1527 1525 1524 1523 1522 1521 1521 1521 1521 1521 1521 1522 1522 1523 1523 1523 1524 1524 1524 1524 1524 1524 1524 1524
1515 1518 1521 1524 1526 1529 1531 1532 1533 1534 1535 1535 1535 1535 1534 1533 1532 1530 1529 1528 1525 1523 1522 1521 1520 1519 1519 1519 1519 1519 1520 1520 1520 1521 1521 1522 1522 1523 1523 1523 1524 1523 1523 1523
1512 1514 1517 1520 1523 1526 1527 1529 1530 1531 1532 1532 1532 1532 1531 1530 1529 1528 1526 1525 1523 1521 1520 1518 1517 1517 1517 1517 1517 1517 1518 1518 1518 1519 1519 1520 1521 1521 1522 1522 1522 1522 1522 1522
1509 1511 1514 1516 1518 1521 1523 1525 1526 1527 1528 1528 1528 1528 1528 1527 1526 1525 1524 1522 1520 1519 1517 1516 1515 1514 1514 1514 1515 1515 1515 1516 1516 1516 1517 1517 1518 1518 1519 1520 1520 1520 1520 1520
1506 1508 1510 1512 1514 1517 1519 1521 1522 1523 1524 1524 1525 1525 1524 1524 1523 1522 1521 1519 1518 1516 1515 1514 1513 1512 1512 1511 1512 1512 1512 1513 1513 1513 1514 1514 1515 1515 1516 1517 1517 1518 1518 1518
1504 1505 1506 1507 1509 1511 1513 1515 1517 1518 1519 1520 1521 1521 1520 1520 1520 1519 1518 1517 1515 1514 1512 1511 1510 1509 1509 1508 1509 1509 1509 1510 1510 1511 1511 1511 1512 1512 1513 1514 1514 1515 1515 1515